sat.trackr.live / text

‹ back to catalog

YAOGAN-43 03B

NORAD 61618 · 2024-190B

PAYLOAD ACTIVE UNKNOWN

§ Identity

Operator
Country
PRC
Launch date
2024-10-23
Launch site
XICLF
Launch vehicle
Mass (kg)
RCS (m²)

External: N2YO · Heavens-Above · Gunter

§ Orbital elements

Epoch: 2026-09-22T12:35:38.978880Z

Period
94.55 min
Inclination
34.9890°
Eccentricity
0.0007021
Mean motion
15.22937962 rev/d
Perigee alt
492.2 km
Apogee alt
501.8 km
Semi-major
6,875.1 km
B*
2.0314e-4
RAAN
305.3811°
Arg perigee
186.5266°
Mean anomaly
173.5358°
Rev number
10,671

§ Raw data

YAOGAN-43 03B1 61618U 24190B   26265.52475670  .00004854  00000+0  20314-3 0  99982 61618  34.9890 305.3811 0007021 186.5266 173.5358 15.22937962106715

JSON: /api/v1/satellites/61618 · /tle

For live sub-satellite position, see the globe view (requires WebGL).

§ Visibility from observer

Set your observer location to see the next 7 days of passes ≥ 10°. The values pass through the URL so the page stays shareable.

No JS? Fill the form by hand. The geolocation button needs JavaScript.